Home > Weather > Portsmouth > Past weeks

Flag for USA Weather for the Past 2 Weeks in Portsmouth, Virginia, USA

Now
53 °F

Light rain. Overcast.


Feels Like: 50 °F
Forecast: 52 / 58 °F
Wind: 9 mph from Northeast

Location: Norfolk Naval Air Station

Current Time: May 6, 2016 at 2:02:57 AM

Latest Report: May 6, 2016 at 12:59 AM


Visibility: 10 mi

Pressure: 29.64 "Hg

Humidity: 86%

Dew Point: 49 °F

Location of PortsmouthLocation

Historic Weather in Portsmouth — Graph

°F

Portsmouth Temperature Yesterday

Maximum temperature yesterday: 55 °F (at 12:59 AM)
Minimum temperature yesterday: 52 °F (at 7:59 PM)
Average temperature yesterday: 54 °F

High & Low Weather Summary for the Past Weeks

 TemperatureHumidityPressure
High86 °F (Apr 26, 4:59 PM)97% (May 4, 7:59 AM)30.27 "Hg (May 4, 7:59 AM)
Low44 °F (Apr 21, 12:59 AM)32% (Apr 26, 4:59 PM)29.57 "Hg (May 5, 3:59 PM)
Average63 °F77%29.94 "Hg
* Reported Apr 21 12:59 AM — May 6 12:59 AM, Portsmouth, Weather by CustomWeather, © 2016

Note: Actual official high and low records may vary slightly from our data, if they occured in-between our weather recording intervals... More about our weather records

Advertising

Portsmouth Weather History for the Previous 24 Hours

Scroll right to see more
 ConditionsComfort  
Time TempWeatherWind HumidityBarometerVisibility
12:59 AM
Fri, May 6
53 °FLight rain. Overcast.9 mph86%29.64 "Hg10 mi
11:59 PM
Thu, May 5
53 °FOvercast.13 mph83%29.64 "Hg10 mi
10:59 PM53 °FMostly cloudy.14 mph83%29.65 "Hg10 mi
9:59 PM53 °FMostly cloudy.12 mph86%29.65 "Hg10 mi
8:59 PM53 °FLight rain. Mostly cloudy.14 mph89%29.64 "Hg9 mi
7:59 PM52 °FLight rain. Fog.13 mph93%29.62 "Hg2 mi
6:59 PM53 °FLight rain. Fog.9 mph89%29.63 "Hg3 mi
5:59 PM53 °FLight rain. Fog.10 mph89%29.62 "Hg2 mi
4:59 PM54 °FDrizzle. Fog.9 mph86%29.59 "Hg4 mi
3:59 PM55 °FOvercast.10 mph80%29.57 "Hg8 mi
2:59 PM55 °FOvercast.16 mph80%29.59 "Hg9 mi
1:59 PM55 °FOvercast.16 mph83%29.59 "Hg10 mi
12:59 PM55 °FOvercast.17 mph83%29.59 "Hg10 mi
11:59 AM55 °FLow clouds.18 mph83%29.61 "Hg10 mi
10:59 AM54 °FLow clouds.15 mph86%29.62 "Hg9 mi
9:59 AM54 °FLow clouds.15 mph86%29.62 "Hg8 mi
8:59 AM54 °FLow clouds.13 mph86%29.62 "Hg9 mi
7:59 AM53 °FFog.13 mph89%29.62 "Hg5 mi
6:59 AM53 °FFog.13 mph93%29.61 "Hg4 mi
5:59 AM53 °FDrizzle. Fog.13 mph93%29.61 "Hg2 mi
4:59 AM54 °FLow clouds.12 mph93%29.59 "Hg9 mi
3:59 AM55 °FLow clouds.14 mph90%29.59 "Hg9 mi
2:59 AM55 °FLow clouds.12 mph93%29.64 "Hg9 mi
Weather by CustomWeather, © 2016

See weather overviewHow to use our weather pages